Satellite: INMARSAT 3-F1
Catalog number: 23839
Epoch time:      103024.73793413
Element set:     856 
Inclination:        0.0600 deg
RA of node:        20.6459 deg
Eccentricity:    0.0008713
Arg of perigee:   298.8879 deg
Mean anomaly:     133.6645 deg
Mean motion:    1.00275510 rev/day
Decay rate:    1.8000E-007 rev/day^2
Epoch rev:            2496
Checksum:              292

Satellite: ASTRA 1F
Catalog number: 23842
Epoch time:      103023.00000000
Element set:     557 
Inclination:        0.0122 deg
RA of node:       319.8851 deg
Eccentricity:    0.0002995
Arg of perigee:    65.1991 deg
Mean anomaly:     116.0362 deg
Mean motion:    1.00273184 rev/day
Decay rate:    1.2399E-006 rev/day^2
Epoch rev:            2485
Checksum:              244

Satellite: JAS 2
Catalog number: 24278
Epoch time:      103027.94601378
Element set:     556 
Inclination:       98.5324 deg
RA of node:       182.1045 deg
Eccentricity:    0.0350035
Arg of perigee:   272.6392 deg
Mean anomaly:      83.4730 deg
Mean motion:   13.52870068 rev/day
Decay rate:   -5.0000E-008 rev/day^2
Epoch rev:           31838
Checksum:              299

Satellite: UNAMSAT
Catalog number: 24305
Epoch time:      103027.77863495
Element set:     671 
Inclination:       82.9362 deg
RA of node:       278.8988 deg
Eccentricity:    0.0028505
Arg of perigee:   264.2658 deg
Mean anomaly:      95.5246 deg
Mean motion:   13.73448962 rev/day
Decay rate:    2.0499E-006 rev/day^2
Epoch rev:           32049
Checksum:              356

Satellite: INMARSAT 3-F2
Catalog number: 24307
Epoch time:      103027.17748265
Element set:     77 
Inclination:        0.0644 deg
RA of node:        17.5587 deg
Eccentricity:    0.0004791
Arg of perigee:   285.8727 deg
Mean anomaly:     230.9524 deg
Mean motion:    1.00270799 rev/day
Decay rate:   -1.2499E-006 rev/day^2
Epoch rev:            2339
Checksum:              313

Satellite: HOT BIRD 2
Catalog number: 24665
Epoch time:      103022.98977813
Element set:     340 
Inclination:        0.0347 deg
RA of node:       162.8644 deg
Eccentricity:    0.0004202
Arg of perigee:   151.1719 deg
Mean anomaly:     177.1880 deg
Mean motion:    1.00271548 rev/day
Decay rate:    9.9999E-009 rev/day^2
Epoch rev:            2299
Checksum:              314

Satellite: INMARSAT 3-F3
Catalog number: 24674
Epoch time:      103027.56936297
Element set:     977 
Inclination:        0.0402 deg
RA of node:       314.6522 deg
Eccentricity:    0.0004462
Arg of perigee:   345.0637 deg
Mean anomaly:     209.7519 deg
Mean motion:    1.00272684 rev/day
Decay rate:    3.7999E-007 rev/day^2
Epoch rev:            2236
Checksum:              314

Satellite: GOES 10
Catalog number: 24786
Epoch time:      103027.33561098
Element set:     521 
Inclination:        0.0841 deg
RA of node:       109.2592 deg
Eccentricity:    0.0003106
Arg of perigee:   212.2787 deg
Mean anomaly:     150.7756 deg
Mean motion:    1.00284723 rev/day
Decay rate:    8.3999E-007 rev/day^2
Epoch rev:            2111
Checksum:              280

Satellite: INMARSAT 3-F4
Catalog number: 24819
Epoch time:      103028.02814237
Element set:     871 
Inclination:        0.0372 deg
RA of node:       296.9609 deg
Eccentricity:    0.0003979
Arg of perigee:    21.1622 deg
Mean anomaly:     124.8706 deg
Mean motion:    1.00268955 rev/day
Decay rate:   -2.8800E-006 rev/day^2
Epoch rev:            2079
Checksum:              300

Satellite: FENGYUN 2A
Catalog number: 24834
Epoch time:      103027.61085868
Element set:     949 
Inclination:        2.5184 deg
RA of node:        88.7049 deg
Eccentricity:    0.0002888
Arg of perigee:   282.4594 deg
Mean anomaly:      60.9418 deg
Mean motion:    1.00261870 rev/day
Decay rate:   -1.9399E-006 rev/day^2
Epoch rev:            2061
Checksum:              325

Satellite: HOT BIRD 3
Catalog number: 24931
Epoch time:      103023.22766377
Element set:     421 
Inclination:        0.0604 deg
RA of node:       227.5595 deg
Eccentricity:    0.0010036
Arg of perigee:    81.3762 deg
Mean anomaly:     268.1866 deg
Mean motion:    1.00274291 rev/day
Decay rate:    9.9999E-009 rev/day^2
Epoch rev:            1980
Checksum:              302

Satellite: METEOSAT 7
Catalog number: 24932
Epoch time:      103027.89766403
Element set:     239 
Inclination:        0.1932 deg
RA of node:        58.7228 deg
Eccentricity:    0.0005032
Arg of perigee:   254.4599 deg
Mean anomaly:     136.7380 deg
Mean motion:    1.00275682 rev/day
Decay rate:   -5.9999E-008 rev/day^2
Epoch rev:            1980
Checksum:              327

Satellite: ASTRA 1G
Catalog number: 25071
Epoch time:      103023.00000000
Element set:     388 
Inclination:        0.0122 deg
RA of node:       319.8851 deg
Eccentricity:    0.0002995
Arg of perigee:    65.1991 deg
Mean anomaly:     116.0322 deg
Mean motion:    1.00273184 rev/day
Decay rate:    1.2399E-006 rev/day^2
Epoch rev:            1887
Checksum:              243

Satellite: INMARSAT 3-F5
Catalog number: 25153
Epoch time:      103025.00612270
Element set:     836 
Inclination:        0.4572 deg
RA of node:       357.0286 deg
Eccentricity:    0.0004605
Arg of perigee:   321.7814 deg
Mean anomaly:     192.2485 deg
Mean motion:    1.00270498 rev/day
Decay rate:    1.4299E-006 rev/day^2
Epoch rev:            1825
Checksum:              278

Satellite: HOT BIRD 4
Catalog number: 25237
Epoch time:      103013.80550721
Element set:     325 
Inclination:        0.0242 deg
RA of node:       116.4838 deg
Eccentricity:    0.0007929
Arg of perigee:   193.6371 deg
Mean anomaly:     105.7449 deg
Mean motion:    1.00276095 rev/day
Decay rate:    1.0700E-006 rev/day^2
Epoch rev:            1818
Checksum:              265

Satellite: NOAA 15
Catalog number: 25338
Epoch time:      103027.96041197
Element set:     990 
Inclination:       98.5504 deg
RA of node:        50.6959 deg
Eccentricity:    0.0011029
Arg of perigee:    24.3318 deg
Mean anomaly:     335.8380 deg
Mean motion:   14.24234678 rev/day
Decay rate:    1.8199E-006 rev/day^2
Epoch rev:           24472
Checksum:              325

Satellite: RESURS O1-N4
Catalog number: 25394
Epoch time:      103028.41414390
Element set:     434 
Inclination:       98.6361 deg
RA of node:       106.7315 deg
Eccentricity:    0.0001740
Arg of perigee:   143.1703 deg
Mean anomaly:     216.9595 deg
Mean motion:   14.23870009 rev/day
Decay rate:    1.4099E-006 rev/day^2
Epoch rev:           23652
Checksum:              293

Satellite: TMSAT
Catalog number: 25396
Epoch time:      103028.23833675
Element set:     818 
Inclination:       98.6315 deg
RA of node:       105.7620 deg
Eccentricity:    0.0003110
Arg of perigee:   171.6563 deg
Mean anomaly:     188.4668 deg
Mean motion:   14.23504007 rev/day
Decay rate:   -4.3000E-007 rev/day^2
Epoch rev:           23649
Checksum:              295

Satellite: TECHSAT 1B
Catalog number: 25397
Epoch time:      103027.97061159
Element set:     102 
Inclination:       98.6263 deg
RA of node:       104.4054 deg
Eccentricity:    0.0000928
Arg of perigee:   168.6946 deg
Mean anomaly:     191.4251 deg
Mean motion:   14.22954616 rev/day
Decay rate:    8.2000E-007 rev/day^2
Epoch rev:           23642
Checksum:              299

Satellite: ASTRA 2A
Catalog number: 25462
Epoch time:      103023.69277567
Element set:     529 
Inclination:        0.0332 deg
RA of node:        23.2945 deg
Eccentricity:    0.0014243
Arg of perigee:   166.1651 deg
Mean anomaly:     210.9165 deg
Mean motion:    1.00270553 rev/day
Decay rate:    9.9999E-009 rev/day^2
Epoch rev:            1618
Checksum:              292

Satellite: EUTELSAT W2
Catalog number: 25491
Epoch time:      103028.07347802
Element set:     570 
Inclination:        0.0401 deg
RA of node:       111.7994 deg
Eccentricity:    0.0004060
Arg of perigee:   192.7728 deg
Mean anomaly:     224.7947 deg
Mean motion:    1.00274293 rev/day
Decay rate:    1.0100E-006 rev/day^2
Epoch rev:            1583
Checksum:              259

Satellite: HOT BIRD 5
Catalog number: 25495
Epoch time:      103024.00223959
Element set:     494 
Inclination:        0.0202 deg
RA of node:       256.5555 deg
Eccentricity:    0.0004157
Arg of perigee:    52.8082 deg
Mean anomaly:     207.4319 deg
Mean motion:    1.00269503 rev/day
Decay rate:    1.5900E-006 rev/day^2
Epoch rev:            1576
Checksum:              266

Satellite: SEDSAT 1
Catalog number: 25509
Epoch time:      103028.04168341
Element set:     766 
Inclination:       31.4295 deg
RA of node:       274.7391 deg
Eccentricity:    0.0357355
Arg of perigee:   114.9168 deg
Mean anomaly:     248.9026 deg
Mean motion:   14.27400727 rev/day
Decay rate:    1.0380E-005 rev/day^2
Epoch rev:           22223
Checksum:              296

Satellite: PAN SAT
Catalog number: 25520
Epoch time:      103027.14426250
Element set:     633 
Inclination:       28.4584 deg
RA of node:        13.1907 deg
Eccentricity:    0.0005979
Arg of perigee:   111.2576 deg
Mean anomaly:     248.8660 deg
Mean motion:   15.13765161 rev/day
Decay rate:    2.6240E-005 rev/day^2
Epoch rev:           23418
Checksum:              283

Satellite: ISS (ZARYA)
Catalog number: 25544
Epoch time:      103028.61240741
Element set:     634 
Inclination:       51.6350 deg
RA of node:         1.3345 deg
Eccentricity:    0.0006821
Arg of perigee:    79.5145 deg
Mean anomaly:     258.8223 deg
Mean motion:   15.59915858 rev/day
Decay rate:    1.2476E-003 rev/day^2
Epoch rev:           23922
Checksum:              291

